[[{"header":{"parameterUnit":"m.s-1","parameterCategory":1,"la1":30.2991,"la2":30.254,"lo1":-89.0895,"lo2":-89.0444,"dy":0.0017,"dx":0.0017,"nx":28,"ny":28,"refTime":"2024-08-02T09:00:00:Z","depth":0,"parameterNumber":2,"parameterNumberName":"U-component_of_WINDS"},"data":[0,0,0,0,0,0,0,0,0,0,0,0,0,0,0,0,0,0,0,0,0,0,0,0,0,0,0,0,0,0,0,0,0,0,0,0,0,0,0,0,0,0,0,0,0,0,0,0,0,0,0,0,0,0,0,0,0,0,2.6596,2.6597,0,2.6697,2.6698,2.6699,2.6691,2.6689,2.6688,2.6686,2.6794,2.6798,2.6802,0,0,0,0,0,0,0,0,0,0,0,0,0,2.6402,2.6406,2.6596,2.6597,2.6598,2.6696,2.6698,2.6699,2.6691,2.6689,2.6687,2.6686,2.6793,2.6798,2.6803,0,0,0,0,0,0,0,0,0,0,0,0,0,2.6493,2.6407,2.6596,2.6606,2.6608,2.6696,2.6698,2.67,2.6692,2.6689,2.6687,2.6685,2.6791,2.6797,2.6803,2.6889,0,0,2.6823,2.6826,0,0,0,0,0,0,0,0,2.6488,2.65,2.6603,2.6606,2.6608,2.6679,2.6669,2.6763,2.6692,2.666,2.6686,2.6684,2.6758,2.6767,2.6791,2.6894,2.6899,2.6824,2.6828,2.683,2.6832,0,0,0,0,0,0,0,2.6481,2.6496,2.6636,2.6605,2.6608,2.6608,2.6618,2.6687,2.6721,2.6663,2.6662,2.6674,2.6759,2.6785,2.6793,2.69,2.6824,2.6829,2.6833,2.6836,2.7082,2.7085,0,0,0,0,0,0,2.6472,2.649,2.6633,2.6639,2.6541,2.6613,2.6624,2.6658,2.672,2.6727,2.6676,2.6673,2.6775,2.6786,2.6797,2.6904,2.683,2.6836,2.684,2.7079,2.7083,2.7085,0,0,0,0,0,0,2.6468,2.6485,2.6629,2.6565,2.6583,2.6619,2.6657,2.6662,2.6688,2.673,2.6736,2.6696,2.6773,2.6788,2.6867,2.6907,2.6839,2.6845,2.7076,2.708,2.7084,2.7116,0,0,0,0,0,0,2.6462,2.6483,2.6515,2.6565,2.6586,2.6695,2.6659,2.6665,2.6698,2.6696,2.675,2.6757,2.6773,2.6857,2.6873,2.6915,2.685,2.7073,2.7078,2.7083,2.7111,2.712,2.7128,0,0,0,0,0,2.6455,2.652,2.6517,2.6534,2.6626,2.6697,2.6709,2.6725,2.6701,2.6735,2.6762,2.6756,2.69,2.6865,2.6883,2.6927,2.707,2.7077,2.7082,2.7107,2.7118,2.7128,0,0,0,0,0,0,2.6475,2.6527,2.6523,2.6606,2.6647,2.6696,2.6738,2.6735,2.6785,2.6781,2.6799,2.6811,2.6891,2.6917,2.6877,2.7015,2.6982,2.6992,2.6995,2.7006,2.7014,2.7007,2.6855,0,0,0,0,0,2.6488,2.654,2.6583,2.6652,2.6673,2.6702,2.6733,2.6741,2.6785,2.6803,2.6836,2.688,2.6936,2.6972,2.7025,2.7114,2.7128,2.7154,2.7162,2.7169,2.7178,2.723,2.7243,2.7105,2.7105,2.7105,0,0,2.6517,2.6552,2.6584,2.6657,2.669,2.6745,2.6717,2.6775,2.6817,2.6812,2.6889,2.6915,2.6966,2.705,2.709,2.7075,2.7219,2.7177,2.7182,2.7187,2.7237,2.725,2.7262,2.7109,2.7109,2.7108,0,0,2.6599,2.663,2.6691,2.6725,2.6775,2.6794,2.6808,2.6858,2.6875,2.6951,2.6949,2.7,2.7094,2.7131,2.7163,2.726,2.7257,2.7277,2.7321,2.7372,2.7382,2.7392,2.7429,2.7442,2.7285,2.7285,2.7285,0,2.663,2.6711,2.6724,2.6784,2.6817,2.6814,2.6878,2.691,2.6976,2.7,2.6981,2.7101,2.7135,2.723,2.7253,2.7278,2.7297,2.7271,2.7379,2.7389,2.7399,2.7434,2.7448,2.7287,2.7287,2.7287,2.7287,0,2.6747,2.6804,2.6848,2.691,2.6949,2.701,2.7034,2.7072,2.7077,2.7098,2.7178,2.7218,2.7281,2.7304,2.7309,2.74,2.7389,2.7375,2.7343,2.7414,2.7448,2.7461,2.7291,2.729,2.7289,2.7289,0,0,2.6844,2.6913,2.693,2.6959,2.7014,2.7059,2.7122,2.7181,2.7214,2.7259,2.7314,2.7395,2.7382,2.7418,2.7428,2.7471,2.7549,2.7452,2.7454,2.7471,2.7655,2.7666,2.7682,2.7546,2.7549,2.7551,2.7651,0,2.6934,2.7043,2.7057,2.7155,2.7209,2.7207,2.7262,2.7303,2.7326,2.7376,2.7401,2.7459,2.7436,2.7458,2.7501,2.753,2.7587,2.7523,2.76,2.7603,2.7589,2.7699,2.7712,2.7804,2.7664,2.7666,2.7668,0,2.7052,2.71,2.7203,2.7253,2.7276,2.7325,2.7382,2.7429,2.7477,2.749,2.753,2.7535,2.7602,2.7566,2.766,2.7617,2.7649,2.7668,2.7672,2.7682,2.7641,2.7714,2.7833,2.7848,2.7689,2.7687,2.7685,0,2.7116,2.7206,2.728,2.7305,2.7364,2.7399,2.7425,2.747,2.7506,2.7556,2.758,2.7638,2.767,2.7716,2.7737,2.7708,2.7831,2.7796,2.7846,2.7846,2.7873,2.7872,2.8002,2.7891,2.789,2.789,2.789,0,2.7215,2.7279,2.731,2.7356,2.7428,2.7444,2.7516,2.7541,2.7581,2.7634,2.7636,2.7685,2.7709,2.7763,2.778,2.7857,2.7871,2.7885,2.789,2.7886,2.7885,2.7909,2.7904,2.7894,2.7893,2.7892,2.7892,0,2.7299,2.7322,2.7403,2.7452,2.7466,2.7517,2.756,2.7606,2.7627,2.7694,2.771,2.7745,2.7808,2.7833,2.7911,2.7923,2.8013,2.8011,2.7996,2.7998,2.8048,2.8044,2.82,2.8223,2.8094,2.8095,2.8096,0,2.7362,2.7411,2.7465,2.75,2.7527,2.7583,2.7619,2.7638,2.7676,2.7734,2.7774,2.7836,2.7888,2.799,2.8023,2.8084,2.8085,2.8135,2.8094,2.809,2.8088,2.8086,2.8092,2.8144,2.8145,2.8146,2.8147,0,2.7472,2.7481,2.7533,2.7589,2.7632,2.7678,2.7722,2.7751,2.7776,2.782,2.7884,2.7924,2.8003,2.8067,2.8129,2.8158,2.8158,2.8159,2.8175,2.8173,2.8164,2.8172,2.802,2.8156,2.8155,2.8155,2.8154,2.8154,2.7549,2.7593,2.7639,2.7697,2.7732,2.7774,2.782,2.7847,2.7901,2.7966,2.7974,2.8044,2.8092,2.8175,2.8207,2.8263,2.825,2.8272,2.8278,2.8283,2.8288,2.8153,2.8274,2.8274,2.8274,2.8274,2.8273,0,2.7662,2.7691,2.7744,2.7806,2.7852,2.7846,2.7895,2.7935,2.7996,2.804,2.809,2.8166,2.8228,2.8266,2.8329,2.8367,2.8368,2.8383,2.8381,2.8389,2.8294,2.8276,2.838,2.838,2.838,2.838,2.838,2.838,2.7726,2.7801,2.7816,2.791,2.7939,2.8006,2.8035,2.8075,2.811,2.8194,2.8245,2.8268,2.8311,2.8377,2.8435,2.8444,2.8469,2.8485,2.8494,2.8406,2.8395,2.8384,2.8367,2.8489,2.8489,2.8584,2.8585,2.8585]},{"header":{"parameterUnit":"m.s-1","parameterCategory":1,"la1":30.2991,"la2":30.254,"lo1":-89.0895,"lo2":-89.0444,"dy":0.0017,"dx":0.0017,"nx":28,"ny":28,"refTime":"2024-08-02T09:00:00:Z","depth":0,"parameterNumber":3,"parameterNumberName":"V-component_of_WINDS"},"data":[0,0,0,0,0,0,0,0,0,0,0,0,0,0,0,0,0,0,0,0,0,0,0,0,0,0,0,0,0,0,0,0,0,0,0,0,0,0,0,0,0,0,0,0,0,0,0,0,0,0,0,0,0,0,0,0,0,0,-0.0984,-0.0983,0,-0.0866,-0.0865,-0.0863,-0.0834,-0.0835,-0.0835,-0.0836,-0.0713,-0.071,-0.0706,0,0,0,0,0,0,0,0,0,0,0,0,0,-0.1183,-0.1179,-0.0984,-0.0982,-0.0981,-0.0866,-0.0865,-0.0863,-0.0834,-0.0835,-0.0836,-0.0836,-0.0715,-0.071,-0.0705,0,0,0,0,0,0,0,0,0,0,0,0,0,-0.1084,-0.1178,-0.0984,-0.0953,-0.0949,-0.0867,-0.0865,-0.0863,-0.0834,-0.0835,-0.0836,-0.0837,-0.0716,-0.0711,-0.0705,-0.0645,0,0,-0.0686,-0.0684,0,0,0,0,0,0,0,0,-0.109,-0.1077,-0.0959,-0.0955,-0.095,-0.0866,-0.089,-0.079,-0.0833,-0.0877,-0.0836,-0.0837,-0.0763,-0.0753,-0.0729,-0.0639,-0.0634,-0.0686,-0.0682,-0.068,-0.0678,0,0,0,0,0,0,0,-0.1097,-0.1082,-0.0937,-0.0957,-0.0952,-0.0944,-0.0931,-0.0871,-0.0815,-0.0873,-0.0871,-0.0858,-0.0761,-0.0735,-0.0726,-0.0632,-0.0686,-0.0681,-0.0677,-0.0675,-0.049,-0.0489,0,0,0,0,0,0,-0.1109,-0.1088,-0.0941,-0.0934,-0.1024,-0.094,-0.0925,-0.0892,-0.0816,-0.0805,-0.0857,-0.0857,-0.0744,-0.0733,-0.0721,-0.0648,-0.068,-0.0674,-0.0671,-0.0491,-0.049,-0.0488,0,0,0,0,0,0,-0.1113,-0.1096,-0.0946,-0.101,-0.099,-0.0935,-0.0898,-0.0889,-0.0862,-0.0803,-0.0793,-0.084,-0.0745,-0.073,-0.0665,-0.0643,-0.0672,-0.0666,-0.0493,-0.0491,-0.0489,-0.0499,0,0,0,0,0,0,-0.1119,-0.1098,-0.1075,-0.101,-0.0987,-0.0891,-0.0896,-0.0886,-0.0852,-0.0851,-0.0785,-0.0775,-0.0744,-0.0674,-0.0659,-0.0635,-0.0661,-0.0495,-0.0492,-0.049,-0.0501,-0.0498,-0.0496,0,0,0,0,0,-0.1126,-0.1082,-0.1074,-0.1056,-0.0957,-0.089,-0.0877,-0.0844,-0.0851,-0.0827,-0.0789,-0.0777,-0.0648,-0.0668,-0.065,-0.0625,-0.0496,-0.0493,-0.049,-0.0502,-0.0499,-0.0496,0,0,0,0,0,0,-0.1144,-0.1072,-0.1063,-0.0996,-0.095,-0.0885,-0.0854,-0.0841,-0.0791,-0.0792,-0.0752,-0.0737,-0.0675,-0.0643,-0.0666,-0.0564,-0.0572,-0.0565,-0.0587,-0.0583,-0.0581,-0.059,-0.0657,0,0,0,0,0,-0.1141,-0.1093,-0.1033,-0.0979,-0.0957,-0.091,-0.0879,-0.0858,-0.0808,-0.0788,-0.0745,-0.0697,-0.0646,-0.0613,-0.0562,-0.0496,-0.0482,-0.047,-0.0468,-0.0466,-0.0461,-0.0425,-0.0419,-0.0479,-0.0479,-0.0479,0,0,-0.1132,-0.1087,-0.1059,-0.0982,-0.0943,-0.0895,-0.0893,-0.0842,-0.0805,-0.078,-0.0717,-0.0684,-0.0627,-0.0563,-0.0532,-0.0534,-0.0441,-0.0462,-0.0461,-0.0457,-0.0421,-0.0416,-0.0411,-0.0477,-0.0477,-0.0477,0,0,-0.1092,-0.1053,-0.1005,-0.0967,-0.0909,-0.0879,-0.0867,-0.0806,-0.0783,-0.0719,-0.07,-0.0656,-0.0568,-0.0529,-0.0498,-0.0446,-0.0433,-0.043,-0.0417,-0.0382,-0.0378,-0.0373,-0.0355,-0.0349,-0.0425,-0.0425,-0.0425,0,-0.1088,-0.1015,-0.0981,-0.0931,-0.0898,-0.0874,-0.0826,-0.079,-0.0719,-0.0697,-0.0701,-0.0591,-0.0551,-0.0478,-0.0465,-0.044,-0.0426,-0.0437,-0.0381,-0.0376,-0.0372,-0.0354,-0.0348,-0.0426,-0.0426,-0.0425,-0.0425,0,-0.1014,-0.0964,-0.0931,-0.0865,-0.0828,-0.0779,-0.0738,-0.0705,-0.0687,-0.0656,-0.0592,-0.0544,-0.0484,-0.0465,-0.0446,-0.0389,-0.0392,-0.0389,-0.0396,-0.0367,-0.035,-0.0343,-0.0426,-0.0426,-0.0426,-0.0426,0,0,-0.098,-0.0897,-0.0886,-0.0856,-0.0792,-0.0752,-0.0702,-0.0645,-0.0617,-0.0569,-0.0527,-0.0454,-0.0452,-0.0417,-0.0394,-0.0363,-0.0326,-0.0364,-0.0362,-0.0359,-0.0261,-0.0264,-0.0257,-0.0318,-0.0316,-0.0315,-0.0266,0,-0.0933,-0.0843,-0.0813,-0.0739,-0.0692,-0.067,-0.0627,-0.0583,-0.0553,-0.0509,-0.0476,-0.0426,-0.0426,-0.0405,-0.0374,-0.0337,-0.0306,-0.034,-0.0278,-0.0276,-0.0293,-0.0247,-0.025,-0.0206,-0.0259,-0.0258,-0.0257,0,-0.0864,-0.0817,-0.0739,-0.0682,-0.0662,-0.0623,-0.0569,-0.0527,-0.0478,-0.0458,-0.042,-0.04,-0.0347,-0.0358,-0.0286,-0.031,-0.0283,-0.0261,-0.0259,-0.0251,-0.0265,-0.0239,-0.0191,-0.0184,-0.0246,-0.0247,-0.0248,0,-0.0849,-0.0765,-0.0708,-0.0683,-0.0615,-0.0589,-0.056,-0.0511,-0.0479,-0.0431,-0.041,-0.0357,-0.0328,-0.0287,-0.0253,-0.0264,-0.0184,-0.0192,-0.0167,-0.0168,-0.015,-0.0152,-0.0097,-0.0133,-0.0133,-0.0133,-0.0133,0,-0.0799,-0.0752,-0.0701,-0.0665,-0.0613,-0.0578,-0.0527,-0.0496,-0.0453,-0.0412,-0.0389,-0.0351,-0.0309,-0.0265,-0.0238,-0.0183,-0.0169,-0.0152,-0.0146,-0.0154,-0.0157,-0.0136,-0.0138,-0.0131,-0.0132,-0.0132,-0.0132,0,-0.0772,-0.0736,-0.0672,-0.0614,-0.0598,-0.0562,-0.0512,-0.0477,-0.0447,-0.0395,-0.0381,-0.0334,-0.0282,-0.0244,-0.0176,-0.0158,-0.0099,-0.0092,-0.0116,-0.0113,-0.009,-0.0093,-0.002,-0.0009,-0.0052,-0.0052,-0.0051,0,-0.0742,-0.0706,-0.0645,-0.0616,-0.0587,-0.054,-0.0508,-0.0473,-0.044,-0.0382,-0.0354,-0.0301,-0.0256,-0.0173,-0.0133,-0.0081,-0.0073,-0.0051,-0.0065,-0.0075,-0.0073,-0.0076,-0.0072,-0.0049,-0.0049,-0.0048,-0.0048,0,-0.0694,-0.0678,-0.0633,-0.0582,-0.0544,-0.0502,-0.0459,-0.0437,-0.0394,-0.0359,-0.0305,-0.0271,-0.0202,-0.0149,-0.0094,-0.0064,-0.0049,-0.0044,-0.0036,-0.0044,-0.006,-0.0052,-0.0111,-0.0046,-0.0046,-0.0046,-0.0046,-0.0047,-0.0665,-0.0632,-0.0585,-0.0535,-0.05,-0.0461,-0.0426,-0.0393,-0.0348,-0.029,-0.0272,-0.0217,-0.0169,-0.0094,-0.0063,-0.0019,-0.002,-0.0008,-0.0005,-0.0002,-0.0003,-0.0067,-0.0009,-0.0009,-0.0009,-0.0009,-0.0009,0,-0.0616,-0.0585,-0.054,-0.0482,-0.0443,-0.0434,-0.0387,-0.0355,-0.0307,-0.0264,-0.0221,-0.0161,-0.011,-0.0066,-0.0014,0.0013,0.0021,0.0025,0.0024,0.003,-0.0005,-0.0018,0.0018,0.0018,0.0018,0.0018,0.0018,0.0018,-0.0586,-0.0531,-0.051,-0.0437,-0.0406,-0.0353,-0.0327,-0.0291,-0.0257,-0.0191,-0.0149,-0.0121,-0.0078,-0.0023,0.0024,0.0036,0.0054,0.0057,0.007,0.0036,0.0033,0.003,0.0018,0.0061,0.0061,0.0101,0.0102,0.0102]}]]